Location: Unnamed Road
(35.9029°N, 51.9749°E)
Time: 12:25:59
(UTC+04:30)

Hubble Space Telescope - Visible Passes

Search period start: 05 April 2020 00:00
Search period end: 15 April 2020 00:00
Orbit: 536 x 540 km, 28.5° (Epoch: 04 April)

Date Brightness Start Highest point End Pass type
(mag) Time Alt. Az. Time Alt. Az. Time Alt. Az.
05 Apr 2.9 20:57:53 10° SSW 20:59:05 14° S 20:59:05 14° S visible
06 Apr 2.5 20:46:45 10° SSW 20:49:26 18° SSE 20:49:26 18° SSE visible
07 Apr 2.3 20:35:45 10° SW 20:38:49 20° SSE 20:39:41 19° SSE visible
08 Apr 2.2 20:24:50 10° SW 20:28:05 23° SSE 20:29:52 17° SE visible
09 Apr 2.1 20:13:58 10° SW 20:17:20 25° S 20:19:58 14° ESE visible
09 Apr 3.3 21:54:33 10° WSW 21:55:18 14° WSW 21:55:18 14° WSW visible
10 Apr 2.1 20:03:09 10° SW 20:06:37 26° S 20:10:00 10° ESE visible
10 Apr 2.9 21:43:53 10° WSW 21:45:20 18° SW 21:45:20 18° SW visible
11 Apr 2.0 19:52:22 10° SW 19:55:54 28° S 19:59:25 10° ESE visible
11 Apr 2.6 21:33:15 10° WSW 21:35:20 21° SW 21:35:20 21° SW visible
12 Apr 2.4 21:22:39 10° WSW 21:25:18 22° SSW 21:25:18 22° SSW visible
13 Apr 2.5 21:12:06 10° WSW 21:15:09 20° SSW 21:15:15 20° SSW visible
14 Apr 2.6 21:01:37 10° WSW 21:04:24 18° SSW 21:05:12 17° S visible
